Location: Castrojimeno
(41.3966°N, 3.8473°W)
Time: 04:36:54
(UTC+00:00)

Cosmos 1763 Rocket - Pass Details

Date: 15 May 2026
Orbit: 728 x 773 km, 74.0° (Epoch: 6 June)

Event Time Altitude Azimuth Distance (km) Brightness Sun altitude
Exits shadow 21:10:52 25° 115° (ESE) 1,512 4.5 -16.5°
Maximum altitude 21:11:43 26° 99° (E) 1,472 4.5 -16.6°
Drops below altitude 10° 21:16:02 10° 43° (NE) 2,321 6.0 -17.2°
Sets 21:18:44 0° 32° (NNE) 3,248 7.0 -17.5°
